Find Starlink 31497

NORAD ID: 60592 Int'l Des: 2024-150 Owner: SPXS Country: US Constellation: starlink operational
LEOCIRCULAR

Live Position

Loading 3D Globe...

About Starlink 31497

Description loading...

Upcoming Passes

Passes for default location (London). Set your location on the main map for personalized predictions.

Altitude History

Loading altitude history...

Two-Line Element Set

1 60592U 24150K 26130.39211066 .00000115 00000-0 14538-4 0 9996
2 60592 53.1615 20.0456 0001013 82.2175 277.8942 15.34392713 97498
Epoch: May 10, 2026 • Age: 11 hours

Current Status

Altitude 472.8 km
Velocity 7.63 km/s
Sub-Earth Point -31.39°S, 179.6°E
Launch Date Aug 20, 2024
Age 1.7 years
Type internet

Technical Details

Classification Payload
Mass 730.00 kg
Dry Mass 700.00 kg
Total Mass 730.00 kg
Length 0.30 m
Diameter 4.10 m
Span 29.00 m
Shape Box + pan
Manufacturer SPXS
Bus Type Starlink V2M
Phase Status In Orbit
Owner/State SPXS/US

Most Searched